Location: Franzen
(48.6167°N, 15.3833°E)
Time: 02:07:02
(UTC+00:00)

ISS - Pass Details

Date: 01 July 2021
Orbit: 419 x 421 km, 51.6° (Epoch: 02 August)

Event Time Altitude Azimuth Distance (km) Brightness Sun altitude
Exits shadow 00:46:21 13° 145° (SE) 1,331 -1.5 -14.6°
Maximum altitude 00:46:50 13° 136° (SE) 1,315 -1.5 -14.6°
Drops below altitude 10° 00:48:32 10° 105° (ESE) 1,500 -0.8 -14.5°
Sets 00:51:28 0° 78° (ENE) 2,369 0.6 -14.2°
